Weather History for KVIH - October, 2012

Change the Weather History Date:

Tuesday, October 16, 2012

  Actual Average Record
Temperature  
Mean Temperature 67 °F 57 °F  
Max Temperature 80 °F 67 °F 87 °F (1950)
Min Temperature 54 °F 46 °F 33 °F (2002)
Degree Days  
Heating Degree Days 0 9  
Month to date heating degree days 183 115  
Since 1 July heating degree days 265 179  
Cooling Degree Days 2 1  
Month to date cooling degree days 3 19  
Year to date cooling degree days 1669 1237  
Growing Degree Days 16 (Base 50)    
Moisture  
Dew Point 46 °F    
Average Humidity 54    
Maximum Humidity 77    
Minimum Humidity 30    
Precipitation  
Precipitation 0.00 in 0.11 in 1.51 in (2000)
Month to date precipitation 2.20 1.74  
Year to date precipitation 28.76 35.33  
Sea Level Pressure  
Sea Level Pressure 29.74 in    
Wind  
Wind Speed 13 mph (SSW)    
Max Wind Speed 24 mph    
Max Gust Speed 30 mph    
Visibility 9 miles    
Events      
T = Trace of Precipitation, MM = Missing Value Source: NWS Daily Summary

Daily Weather History Graph

Daily Weather History Graph

Search for Another Location

Airport or City:

Trip Planner

Search our weather history database for the weather conditions in past years. The results will help you decide how hot, cold, wet, or windy it might be!

Date:

Astronomy

Oct. 16, 2012 Rise Set
Actual Time 7:17 AM CDT 6:27 PM CDT
Civil Twilight 6:50 AM CDT 6:53 PM CDT
Nautical Twilight 6:19 AM CDT 7:24 PM CDT
Astronomical Twilight 5:49 AM CDT 7:54 PM CDT
Moon 8:38 AM CDT (10/16) 7:14 PM CDT (10/16)
Length of Visible Light 12h 03m
Length of Day
11h 09m
New Moon, 2% of the Moon is Illuminated
Oct 16
New Moon
Oct 21
First Quarter
Oct 29
Full
Nov 6
Last Quarter
Nov 13
New

Hourly Weather History & Observations

Time (CDT) Temp. Dew Point Humidity Pressure Visibility Wind Dir Wind Speed Gust Speed Precip Events Conditions
12:53 AM 54.0 °F 46.0 °F 75% 29.89 in 10.0 mi SSE 10.4 mph - N/A   Clear
1:53 AM 55.0 °F 46.9 °F 74% 29.88 in 10.0 mi South 8.1 mph - N/A   Clear
2:53 AM 55.9 °F 48.0 °F 75% 29.86 in 10.0 mi South 9.2 mph - N/A   Clear
3:53 AM 55.9 °F 48.0 °F 75% 29.83 in 10.0 mi SSE 10.4 mph - N/A   Clear
4:53 AM 55.0 °F 46.9 °F 74% 29.81 in 10.0 mi South 10.4 mph - N/A   Clear
5:53 AM 57.9 °F 46.9 °F 67% 29.81 in 10.0 mi South 11.5 mph - N/A   Clear
6:53 AM 55.4 °F 46.4 °F 72% 29.82 in 10.0 mi SSW 10.4 mph - N/A   Clear
7:53 AM 57.9 °F 48.0 °F 70% 29.82 in 10.0 mi SSW 11.5 mph - N/A   Clear
8:53 AM 61.0 °F 48.0 °F 62% 29.82 in 10.0 mi SSW 13.8 mph - N/A   Clear
9:53 AM 64.9 °F 48.9 °F 56% 29.81 in 10.0 mi SW 11.5 mph 19.6 mph N/A   Clear
10:53 AM 70.0 °F 50.0 °F 49% 29.79 in 10.0 mi SW 11.5 mph 23.0 mph N/A   Clear
11:33 AM 73.4 °F 48.2 °F 41% 29.79 in 2.0 mi SSW 18.4 mph 24.2 mph N/A   Haze
11:53 AM 75.0 °F 48.9 °F 40% 29.76 in 2.0 mi SSW 12.7 mph - N/A   Haze
12:10 PM 75.2 °F 48.2 °F 38% 29.77 in 6.0 mi SW 12.7 mph 27.6 mph N/A   Haze
12:53 PM 78.1 °F 48.0 °F 35% 29.73 in 10.0 mi SW 13.8 mph 27.6 mph N/A   Clear
1:53 PM 79.0 °F 45.0 °F 30% 29.69 in 10.0 mi SW 20.7 mph - N/A   Clear
2:53 PM 79.0 °F 45.0 °F 30% 29.66 in 10.0 mi SW 12.7 mph 21.9 mph N/A   Clear
3:53 PM 78.1 °F 45.0 °F 31% 29.64 in 10.0 mi SSW 15.0 mph 23.0 mph N/A   Clear
4:53 PM 77.0 °F 44.1 °F 31% 29.62 in 10.0 mi SSW 13.8 mph 25.3 mph N/A   Clear
5:53 PM 73.0 °F 45.0 °F 37% 29.61 in 10.0 mi South 11.5 mph - N/A   Clear
6:53 PM 66.0 °F 43.0 °F 43% 29.62 in 10.0 mi South 8.1 mph - N/A   Clear
7:53 PM 68.0 °F 42.1 °F 39% 29.61 in 10.0 mi South 16.1 mph 20.7 mph N/A   Clear
8:53 PM 64.9 °F 43.0 °F 45% 29.62 in 10.0 mi South 13.8 mph - N/A   Clear
9:53 PM 64.9 °F 44.1 °F 47% 29.62 in 10.0 mi South 16.1 mph 23.0 mph N/A   Clear
10:53 PM 63.0 °F 45.0 °F 52% 29.62 in 10.0 mi South 15.0 mph 23.0 mph N/A   Clear
11:53 PM 61.0 °F 45.0 °F 56% 29.62 in 10.0 mi South 13.8 mph 21.9 mph N/A   Partly Cloudy